Overview Statistics Trail Chart Weather Telemetry Raw packets
 

This is the latest recevied weather packets stored in our database for station/object OK1ALX-6. If no packets are shown the sender has not sent any weather packets the latest 10 day(s).

<< 44 45 46 47 48 49 50 >>
Time Temp. Humidity Pressure Rain* Wind** Luminosity Snow
1787930403 27.22° C 51% 1015.7 hPa 0 mm - 149 W/m² -
1787929803 27.22° C 53% 1016 hPa 0 mm - 181 W/m² -
1787929205 27.22° C 48% 1015.8 hPa 0 mm - 139 W/m² -
1787928603 27.78° C 46% 1016 hPa 0 mm - 209 W/m² -
1787928003 28.33° C 45% 1016 hPa 0 mm - 246 W/m² -
1787927403 28.89° C 44% 1015.7 hPa 0 mm - 323 W/m² -
1787926803 28.89° C 44% 1015.9 hPa 0 mm - 329 W/m² -
1787926203 28.33° C 46% 1016.1 hPa 0 mm - 376 W/m² -
1787925603 28.33° C 44% 1015.2 hPa 0 mm - 382 W/m² -
1787925003 28.33° C 46% 1014.8 hPa 0 mm - 367 W/m² -
1787924403 28.33° C 45% 1015.2 hPa 0 mm - 481 W/m² -
1787923803 28.33° C 44% 1015.2 hPa 0 mm - 395 W/m² -
1787923203 28.33° C 45% 1015.4 hPa 0 mm - 399 W/m² -
1787922603 28.33° C 45% 1015.4 hPa 0 mm - 408 W/m² -
1787922003 28.33° C 44% 1015.7 hPa 0 mm - 382 W/m² -
1787921403 28.33° C 44% 1015.8 hPa 0 mm - 356 W/m² -
1787920803 28.33° C 43% 1015.7 hPa 0 mm - 529 W/m² -
1787920203 28.33° C 44% 1015.3 hPa 0 mm - 519 W/m² -
1787919603 27.78° C 45% 1015.8 hPa 0 mm - 530 W/m² -
1787919003 27.78° C 43% 1015.4 hPa 0 mm - 398 W/m² -
1787918413 27.78° C 45% 1015.2 hPa 0 mm - 478 W/m² -
1787917803 27.78° C 46% 1015.3 hPa 0 mm - 505 W/m² -
1787917203 27.78° C 46% 1015.5 hPa 0 mm - 476 W/m² -
1787916604 27.78° C 46% 1015.6 hPa 0 mm - 510 W/m² -
1787916003 27.78° C 45% 1015.5 hPa 0 mm - 553 W/m² -

* Rain latest hour (hover to see other rain measurements)
** Current wind speed in m/s (hover to see current wind gust speed)